Home   Weather   Gandhinagar   Past weeks

Flag for India Past Weather in Gandhinagar, Gujarat, India — Yesterday and Last 2 Weeks

Now
88 °F

Clear.


Feels Like: 93 °F
Forecast: 72 / 100 °F
Wind: 9 mph from Southwest

Location: Ahmadabad Airport

Current Time: Apr 25, 2017 at 10:21:45 pm

Latest Report: Apr 25, 2017 at 9:30 pm


Visibility: 2 mi

Pressure: 29.77 "Hg

Humidity: 55%

Dew Point: 70 °F

Location of GandhinagarLocation

Past Weather in Gandhinagar — Graph

°F

Gandhinagar Temperature Yesterday

Maximum temperature yesterday: 99 °F (at 4:00 pm)
Minimum temperature yesterday: 79 °F (at 5:00 am)
Average temperature yesterday: 88 °F

High & Low Weather Summary for the Past Weeks

 TemperatureHumidityPressure
High111 °F (Apr 13, 4:00 pm)84% (Apr 21, 5:30 am)29.89 "Hg (Apr 21, 5:30 am)
Low70 °F (Apr 11, 6:00 am)6% (Apr 13, 4:00 pm)29.59 "Hg (Apr 19, 4:30 pm)
Average92 °F33%29.76 "Hg
* Reported Apr 10 8:30 pm — Apr 25 9:00 pm, Gandhinagar, Weather by CustomWeather, © 2017

Note: Actual official high and low records may vary slightly from our data, if they occured in-between our weather recording intervals... More about our weather records

Advertising

Gandhinagar Weather History for the Previous 24 Hours

Scroll right to see more
 ConditionsComfort  
Time TempWeatherWind HumidityBarometerVisibility
9:00 pm
Tue, Apr 25
91 °FClear.9 mph44%29.77 "Hg2 mi
8:00 pm95 °FClear.8 mph36%29.74 "Hg2 mi
7:30 pm95 °FClear.3 mph28%29.74 "Hg2 mi
7:00 pm95 °FClear.6 mph26%29.74 "Hg3 mi
6:30 pm97 °FClear.7 mph23%29.71 "Hg4 mi
6:00 pm97 °FClear.6 mph27%29.71 "Hg4 mi
5:30 pm99 °FClear.6 mph27%29.71 "Hg4 mi
5:00 pm100 °FClear.6 mph27%29.74 "Hg4 mi
4:30 pm99 °FClear.9 mph29%29.74 "Hg4 mi
3:30 pm99 °FClear.6 mph29%29.77 "Hg4 mi
3:00 pm97 °FClear.7 mph30%29.77 "Hg4 mi
2:30 pm95 °FClear.7 mph34%29.77 "Hg4 mi
2:00 pm95 °FClear.8 mph34%29.80 "Hg4 mi
1:30 pm95 °FClear.7 mph36%29.83 "Hg4 mi
12:30 pm91 °FPassing clouds.6 mph44%29.86 "Hg3 mi
12:00 pm91 °FPassing clouds.7 mph44%29.86 "Hg3 mi
11:30 am90 °FPassing clouds.8 mph49%29.86 "Hg3 mi
11:00 am88 °FPassing clouds.7 mph52%29.89 "Hg3 mi
10:30 am88 °FPassing clouds.8 mph52%29.89 "Hg3 mi
10:00 am86 °FPassing clouds.10 mph59%29.89 "Hg3 mi
9:00 am84 °FPassing clouds.9 mph62%29.89 "Hg2 mi
8:30 am82 °FClear.9 mph66%29.86 "Hg2 mi
8:00 am82 °FClear.12 mph62%29.86 "Hg2 mi
7:00 am81 °FHaze.7 mph66%29.83 "Hg2 mi
6:30 am81 °FHaze.8 mph70%29.83 "Hg2 mi
6:00 am81 °FHaze.7 mph70%29.83 "Hg2 mi
5:30 am81 °FClear.7 mph70%29.80 "Hg2 mi
5:00 am82 °FClear.6 mph66%29.80 "Hg2 mi
4:30 am82 °FClear.7 mph66%29.80 "Hg2 mi
4:00 am84 °FClear.7 mph62%29.80 "Hg2 mi
3:30 am84 °FHaze.5 mph62%29.80 "Hg2 mi
3:00 am84 °FHaze.6 mph66%29.80 "Hg2 mi
2:30 am82 °FHaze.No wind70%29.80 "Hg2 mi
1:30 am84 °FHaze.No wind70%29.80 "Hg2 mi
1:00 am84 °FHaze.6 mph70%29.80 "Hg2 mi
12:30 am84 °FHaze.6 mph70%29.80 "Hg2 mi
12:00 am84 °FHaze.6 mph70%29.83 "Hg2 mi
11:30 pm
Mon, Apr 24
84 °FHaze.6 mph66%29.83 "Hg2 mi
11:00 pm86 °FHaze.6 mph62%29.83 "Hg2 mi
10:30 pm86 °FClear.6 mph62%29.83 "Hg2 mi
10:00 pm86 °FClear.6 mph62%29.80 "Hg2 mi
Weather by CustomWeather, © 2017

See weather overviewHow to use our weather pages